• In Schweiz
  • Länderverzeichnis
  • Für 7 Tage
  • Wassertemperatur
  • Satellitenkarten
  • Wetterkarte
  • Widgets
  • user-avatar
    Anmelden

    Stündliche Wetter Mosul

    Heute, 19 Oktober, Freitag

    Zeit Temperatur Niederschläge Wind Luftdruck Luftfeuchtigkeit
    00:00 +28°C° 0 mm 2 m/S 732 mmHg 28%
    01:00 +28°C° 0 mm 2 m/S 732 mmHg 28%
    02:00 +27°C° 0 mm 2 m/S 732 mmHg 28%
    03:00 +27°C° 0 mm 2 m/S 732 mmHg 29%
    04:00 +26°C° 0 mm 2 m/S 732 mmHg 29%
    05:00 +26°C° 0 mm 2 m/S 732 mmHg 29%
    06:00 +26°C° 0 mm 2 m/S 732 mmHg 30%
    07:00 +27°C° 0.1 mm 3 m/S 732 mmHg 28%
    08:00 +28°C° 0.1 mm 3 m/S 732 mmHg 25%
    09:00 +29°C° 0.1 mm 3 m/S 732 mmHg 23%
    10:00 +30°C° 0 mm 3 m/S 732 mmHg 22%
    11:00 +31°C° 0 mm 3 m/S 732 mmHg 20%
    12:00 +33°C° 0 mm 3 m/S 732 mmHg 19%
    13:00 +33°C° 0.1 mm 3 m/S 732 mmHg 19%
    14:00 +34°C° 0.1 mm 2 m/S 732 mmHg 19%
    15:00 +34°C° 0.1 mm 2 m/S 732 mmHg 20%
    16:00 +32°C° 0.3 mm 2 m/S 732 mmHg 21%
    17:00 +31°C° 0.3 mm 3 m/S 731 mmHg 23%
    18:00 +30°C° 0.3 mm 4 m/S 731 mmHg 25%
    19:00 +30°C° 0 mm 4 m/S 732 mmHg 26%
    20:00 +29°C° 0 mm 3 m/S 732 mmHg 26%
    21:00 +29°C° 0 mm 3 m/S 732 mmHg 27%
    22:00 +28°C° 0 mm 3 m/S 732 mmHg 28%
    23:00 +28°C° 0 mm 3 m/S 732 mmHg 29%

    Morgen, 20 Oktober, Samstag

    Zeit Temperatur Niederschläge Wind Luftdruck Luftfeuchtigkeit
    00:00 +28°C° 0 mm 4 m/S 732 mmHg 30%
    01:00 +27°C° 0 mm 3 m/S 732 mmHg 31%
    02:00 +27°C° 0 mm 3 m/S 732 mmHg 33%
    03:00 +26°C° 0 mm 3 m/S 732 mmHg 34%
    04:00 +26°C° 0.2 mm 4 m/S 732 mmHg 35%
    05:00 +26°C° 0.2 mm 4 m/S 732 mmHg 35%
    06:00 +26°C° 0.2 mm 4 m/S 732 mmHg 36%
    07:00 +27°C° 0.1 mm 5 m/S 732 mmHg 34%
    08:00 +27°C° 0.1 mm 5 m/S 732 mmHg 32%
    09:00 +28°C° 0.1 mm 6 m/S 732 mmHg 30%
    10:00 +29°C° 0.4 mm 6 m/S 732 mmHg 28%
    11:00 +32°C° 0.4 mm 6 m/S 732 mmHg 26%
    12:00 +33°C° 0.4 mm 6 m/S 732 mmHg 25%
    13:00 +33°C° 0 mm 5 m/S 732 mmHg 24%
    14:00 +34°C° 0 mm 5 m/S 732 mmHg 23%
    15:00 +34°C° 0 mm 4 m/S 731 mmHg 21%
    16:00 +33°C° 0.2 mm 4 m/S 731 mmHg 24%
    17:00 +31°C° 0.2 mm 3 m/S 731 mmHg 26%
    18:00 +30°C° 0.2 mm 3 m/S 731 mmHg 28%
    19:00 +30°C° 0.1 mm 3 m/S 731 mmHg 30%
    20:00 +29°C° 0.1 mm 3 m/S 731 mmHg 32%
    21:00 +28°C° 0.1 mm 4 m/S 731 mmHg 35%
    22:00 +27°C° 0.6 mm 3 m/S 731 mmHg 38%
    23:00 +27°C° 0.6 mm 3 m/S 731 mmHg 42%

    übermorgen, 21 Oktober, Sonntag

    Zeit Temperatur Niederschläge Wind Luftdruck Luftfeuchtigkeit
    00:00 +26°C° 0.6 mm 2 m/S 731 mmHg 45%
    01:00 +26°C° 0.3 mm 3 m/S 731 mmHg 46%
    02:00 +25°C° 0.3 mm 4 m/S 731 mmHg 46%
    03:00 +24°C° 0.3 mm 6 m/S 731 mmHg 46%
    04:00 +24°C° 0.6 mm 6 m/S 731 mmHg 49%
    05:00 +23°C° 0.6 mm 7 m/S 731 mmHg 52%
    06:00 +23°C° 0.6 mm 8 m/S 730 mmHg 54%
    07:00 +23°C° 0.8 mm 8 m/S 731 mmHg 54%
    08:00 +23°C° 0.8 mm 8 m/S 731 mmHg 53%
    09:00 +24°C° 0.8 mm 8 m/S 731 mmHg 52%
    10:00 +26°C° 0.6 mm 7 m/S 731 mmHg 50%
    11:00 +27°C° 0.6 mm 7 m/S 731 mmHg 47%
    12:00 +27°C° 0.6 mm 7 m/S 731 mmHg 45%
    13:00 +27°C° 0.6 mm 7 m/S 731 mmHg 45%
    14:00 +28°C° 0.6 mm 7 m/S 730 mmHg 46%
    15:00 +28°C° 0.6 mm 8 m/S 730 mmHg 46%
    16:00 +27°C° 0.6 mm 7 m/S 730 mmHg 49%
    17:00 +26°C° 0.6 mm 7 m/S 730 mmHg 51%
    18:00 +24°C° 0.6 mm 6 m/S 730 mmHg 54%
    19:00 +25°C° 0.1 mm 5 m/S 730 mmHg 55%
    20:00 +25°C° 0.1 mm 4 m/S 730 mmHg 56%
    21:00 +24°C° 0.1 mm 3 m/S 730 mmHg 57%
    22:00 +24°C° 0.4 mm 3 m/S 730 mmHg 59%
    23:00 +24°C° 0.4 mm 3 m/S 730 mmHg 61%

    22 Oktober, Montag

    Zeit Temperatur Niederschläge Wind Luftdruck Luftfeuchtigkeit
    00:00 +22°C° 0.4 mm 3 m/S 731 mmHg 63%
    01:00 +22°C° 0.7 mm 3 m/S 731 mmHg 65%
    02:00 +22°C° 0.7 mm 3 m/S 731 mmHg 67%
    03:00 +21°C° 0.7 mm 2 m/S 731 mmHg 69%
    04:00 +21°C° 0.1 mm 3 m/S 731 mmHg 68%
    05:00 +21°C° 0.1 mm 3 m/S 732 mmHg 67%
    06:00 +21°C° 0.1 mm 3 m/S 732 mmHg 66%
    07:00 +22°C° 0.1 mm 3 m/S 732 mmHg 62%
    08:00 +24°C° 0.1 mm 3 m/S 733 mmHg 58%
    09:00 +23°C° 0.1 mm 4 m/S 733 mmHg 54%
    10:00 +25°C° 0 mm 3 m/S 733 mmHg 53%
    11:00 +26°C° 0 mm 3 m/S 733 mmHg 52%
    12:00 +27°C° 0 mm 3 m/S 733 mmHg 50%
    13:00 +27°C° 0 mm 2 m/S 733 mmHg 49%
    14:00 +28°C° 0 mm 2 m/S 733 mmHg 47%
    15:00 +28°C° 0 mm 1 m/S 732 mmHg 45%
    16:00 +28°C° 0 mm 1 m/S 733 mmHg 47%
    17:00 +28°C° 0 mm 1 m/S 733 mmHg 49%
    18:00 +27°C° 0 mm 1 m/S 733 mmHg 52%
    19:00 +27°C° 0 mm 1 m/S 733 mmHg 53%
    20:00 +26°C° 0 mm 1 m/S 733 mmHg 54%
    21:00 +26°C° 0 mm 1 m/S 734 mmHg 56%
    22:00 +25°C° 0 mm 2 m/S 734 mmHg 57%
    23:00 +25°C° 0 mm 2 m/S 734 mmHg 57%

    23 Oktober, Dienstag

    Zeit Temperatur Niederschläge Wind Luftdruck Luftfeuchtigkeit
    00:00 +25°C° 0 mm 2 m/S 733 mmHg 58%
    01:00 +24°C° 0 mm 2 m/S 733 mmHg 58%
    02:00 +24°C° 0 mm 3 m/S 733 mmHg 59%
    03:00 +24°C° 0 mm 3 m/S 733 mmHg 59%
    04:00 +22°C° 0 mm 3 m/S 733 mmHg 59%
    05:00 +22°C° 0 mm 3 m/S 733 mmHg 58%
    06:00 +22°C° 0 mm 3 m/S 734 mmHg 58%
    07:00 +23°C° 0 mm 2 m/S 734 mmHg 55%
    08:00 +24°C° 0 mm 2 m/S 734 mmHg 53%
    09:00 +25°C° 0 mm 2 m/S 735 mmHg 50%
    10:00 +25°C° 0.2 mm 3 m/S 734 mmHg 50%
    11:00 +25°C° 0.2 mm 4 m/S 734 mmHg 51%
    12:00 +25°C° 0.2 mm 5 m/S 734 mmHg 52%
    13:00 +26°C° 0 mm 5 m/S 734 mmHg 48%
    14:00 +27°C° 0 mm 5 m/S 733 mmHg 44%
    15:00 +28°C° 0 mm 6 m/S 733 mmHg 41%
    16:00 +27°C° 0 mm 5 m/S 733 mmHg 42%
    17:00 +27°C° 0 mm 4 m/S 733 mmHg 43%
    18:00 +26°C° 0 mm 3 m/S 733 mmHg 44%
    19:00 +26°C° 0 mm 4 m/S 733 mmHg 44%
    20:00 +26°C° 0 mm 4 m/S 733 mmHg 43%
    21:00 +25°C° 0 mm 5 m/S 733 mmHg 43%
    22:00 +25°C° 0.2 mm 5 m/S 733 mmHg 44%
    23:00 +25°C° 0.2 mm 4 m/S 733 mmHg 44%

    24 Oktober, Mittwoch

    Zeit Temperatur Niederschläge Wind Luftdruck Luftfeuchtigkeit
    00:00 +23°C° 0.2 mm 4 m/S 732 mmHg 45%
    01:00 +23°C° 0.4 mm 4 m/S 732 mmHg 47%
    02:00 +22°C° 0.4 mm 5 m/S 732 mmHg 49%
    03:00 +22°C° 0.4 mm 5 m/S 732 mmHg 50%
    04:00 +22°C° 0.1 mm 5 m/S 732 mmHg 51%
    05:00 +22°C° 0.1 mm 5 m/S 732 mmHg 52%
    06:00 +21°C° 0.1 mm 4 m/S 732 mmHg 52%
    07:00 +22°C° 0 mm 4 m/S 732 mmHg 49%
    08:00 +23°C° 0 mm 4 m/S 732 mmHg 46%
    09:00 +25°C° 0 mm 4 m/S 732 mmHg 43%
    10:00 +26°C° 0.2 mm 4 m/S 732 mmHg 40%
    11:00 +27°C° 0.2 mm 4 m/S 732 mmHg 37%
    12:00 +28°C° 0.2 mm 4 m/S 731 mmHg 34%
    13:00 +28°C° 0.1 mm 4 m/S 731 mmHg 33%
    14:00 +29°C° 0.1 mm 4 m/S 731 mmHg 32%
    15:00 +29°C° 0.1 mm 4 m/S 730 mmHg 32%
    16:00 +28°C° 0.1 mm 4 m/S 730 mmHg 34%
    17:00 +28°C° 0.1 mm 4 m/S 730 mmHg 36%
    18:00 +27°C° 0.1 mm 4 m/S 730 mmHg 39%
    19:00 +26°C° 0.2 mm 3 m/S 730 mmHg 43%
    20:00 +25°C° 0.2 mm 3 m/S 730 mmHg 47%
    21:00 +25°C° 0.2 mm 2 m/S 730 mmHg 51%
    22:00 +24°C° 0.7 mm 3 m/S 730 mmHg 54%
    23:00 +24°C° 0.7 mm 3 m/S 730 mmHg 57%
    Mehr zeigen